Corpus Christi, TX

2:57 PM CST on January 20, 2017 (GMT -0600)
Corpus Christi International

Weather History for KCRP - March, 2013

Change the Weather History Date:

Sunday, March 3, 2013

  Actual Average Record
Temperature  
Mean Temperature 58 °F 64 °F  
Max Temperature 78 °F 73 °F 88 °F (1966)
Min Temperature 37 °F 54 °F 28 °F (1943)
Degree Days  
Heating Degree Days 7 4  
Month to date heating degree days 20 12  
Since 1 July heating degree days 472 812  
Cooling Degree Days 0 3  
Month to date cooling degree days 0 8  
Year to date cooling degree days 144 84  
Growing Degree Days 8 (Base 50)    
Moisture  
Dew Point 37 °F    
Average Humidity 46    
Maximum Humidity 67    
Minimum Humidity 25    
Precipitation  
Precipitation 0.00 in 0.07 in 1.16 in (1957)
Month to date precipitation 0.00 0.21  
Year to date precipitation 1.69 3.68  
Snow  
Snow 0.00 in - - ()
Month to date snowfall 0.0  
Since 1 July snowfall 0.0  
Snow Depth 0.00 in    
Sea Level Pressure  
Sea Level Pressure 30.17 in    
Wind  
Wind Speed 14 mph (South)    
Max Wind Speed 28 mph    
Max Gust Speed 32 mph    
Visibility 10 miles    
Events      
T = Trace of Precipitation, MM = Missing Value Source: NWS Daily Summary

Daily Weather History Graph

Daily Weather History Graph

Search for Another Location

Airport or City:

Trip Planner

Search our weather history database for the weather conditions in past years. The results will help you decide how hot, cold, wet, or windy it might be!

Date:

Astronomy

Mar. 03, 2013 Rise Set
Actual Time 6:52 AM CST 6:31 PM CST
Civil Twilight 6:28 AM CST 6:55 PM CST
Nautical Twilight 6:01 AM CST 7:22 PM CST
Astronomical Twilight 5:34 AM CST 7:49 PM CST
Moon No Moon Rise 10:42 AM CST (3/3)
Length of Visible Light 12h 26m
Length of Day
11h 39m
Waning Gibbous, 63% of the Moon is Illuminated
Mar 3
Waning Gibbous
Mar 4
Last Quarter
Mar 11
New
Mar 19
First Quarter
Mar 27
Full

Hourly Weather History & Observations

Time (CST) Temp. Windchill Dew Point Humidity Pressure Visibility Wind Dir Wind Speed Gust Speed Precip Events Conditions
12:51 AM 45.0 °F 43.5 °F 25.0 °F 46% 30.30 in 10.0 mi SSE 3.5 mph - N/A   Clear
1:51 AM 42.1 °F 40.2 °F 23.0 °F 47% 30.29 in 10.0 mi SSW 3.5 mph - N/A   Clear
2:51 AM 39.9 °F 36.7 °F 21.9 °F 49% 30.27 in 10.0 mi WSW 4.6 mph - N/A   Clear
3:51 AM 41.0 °F 38.0 °F 23.0 °F 49% 30.26 in 10.0 mi West 4.6 mph - N/A   Clear
4:51 AM 41.0 °F - 24.1 °F 51% 30.26 in 10.0 mi Calm Calm - N/A   Clear
5:51 AM 39.0 °F 35.7 °F 23.0 °F 53% 30.26 in 10.0 mi WSW 4.6 mph - N/A   Clear
6:51 AM 37.0 °F 34.5 °F 21.9 °F 54% 30.26 in 10.0 mi SW 3.5 mph - N/A   Clear
7:51 AM 44.1 °F 42.5 °F 27.0 °F 51% 30.27 in 10.0 mi South 3.5 mph - N/A   Clear
8:51 AM 57.2 °F - 37.4 °F 48% 30.28 in 10.0 mi SSW 9.2 mph - N/A   Clear
9:51 AM 66.0 °F - 39.0 °F 37% 30.27 in 10.0 mi South 13.8 mph - N/A   Clear
10:51 AM 72.0 °F - 37.9 °F 29% 30.25 in 10.0 mi South 18.4 mph 24.2 mph N/A   Clear
11:51 AM 73.9 °F - 37.9 °F 27% 30.22 in 10.0 mi South 18.4 mph - N/A   Clear
12:51 PM 75.9 °F - 37.9 °F 25% 30.17 in 10.0 mi South 13.8 mph 21.9 mph N/A   Clear
1:51 PM 78.1 °F - 39.9 °F 25% 30.13 in 10.0 mi SSE 19.6 mph 28.8 mph N/A   Clear
2:51 PM 77.0 °F - 43.0 °F 30% 30.11 in 10.0 mi SSE 19.6 mph - N/A   Clear
3:51 PM 75.2 °F - 42.8 °F 31% 30.08 in 10.0 mi SE 24.2 mph 28.8 mph N/A   Clear
4:51 PM 73.0 °F - 44.1 °F 35% 30.07 in 10.0 mi SE 23.0 mph 31.1 mph N/A   Clear
5:51 PM 69.1 °F - 45.0 °F 42% 30.06 in 10.0 mi SSE 26.5 mph 31.1 mph N/A   Clear
6:51 PM 64.9 °F - 46.9 °F 52% 30.06 in 10.0 mi SSE 23.0 mph 29.9 mph N/A   Clear
7:51 PM 64.0 °F - 48.0 °F 56% 30.06 in 10.0 mi SSE 20.7 mph - N/A   Clear
8:51 PM 63.0 °F - 48.9 °F 60% 30.06 in 10.0 mi SSE 19.6 mph - N/A   Clear
9:51 PM 63.0 °F - 50.0 °F 63% 30.05 in 10.0 mi South 19.6 mph - N/A   Clear
10:51 PM 63.0 °F - 51.1 °F 65% 30.04 in 10.0 mi South 20.7 mph - N/A   Clear
11:51 PM 62.1 °F - 51.1 °F 67% 30.01 in 10.0 mi South 19.6 mph - N/A   Clear